Location: Val de Santo Domingo
(40.0124°N, 4.3273°W)
Time: 20:59:32
(UTC+00:00)

CZ-4B R/B - Pass Details

Date: 18 July 2025
Orbit: 441 x 562 km, 97.8° (Epoch: 22 April)

Event Time Altitude Azimuth Distance (km) Brightness Sun altitude
Exits shadow 21:14:45 12° 193° (SSW) 1,521 4.8 -14.9°
Maximum altitude 21:17:46 39° 262° (W) 738 3.8 -15.3°
Drops below altitude 10° 21:21:14 10° 332° (NNW) 1,713 6.5 -15.8°
Sets 21:23:29 0° 340° (NNW) 2,629 7.5 -16.1°
